Location: Carri�res
(48.9069°N, 2.1792°E)
Time: 12:39:29
(UTC+00:00)

Cosmos 1892 Rocket - Pass Details

Date: 17 January 2021
Orbit: 607 x 632 km, 82.5° (Epoch: 25 February)

Event Time Altitude Azimuth Distance (km) Brightness Sun altitude
Rises 17:38:44 0° 162° (SSE) 2,868 7.0 -11.8°
Reaches altitude 10° 17:41:07 10° 152° (SSE) 1,965 6.0 -12.1°
Maximum altitude 17:44:57 31° 90° (E) 1,072 4.3 -12.7°
Enters shadow 17:48:32 11° 30° (NNE) 1,878 5.6 -13.3°
